Location: Newark
(12.4436°N, 0.6167°W)
Time: 02:49:51
(UTC+00:00)

Vanguard 3 - Visible Passes

Search period start: 16 December 2019 00:00
Search period end: 26 December 2019 00:00
Orbit: 508 x 3263 km, 33.3° (Epoch: 14 December)

Date Brightness Start Highest point End Pass type
(mag) Time Alt. Az. Time Alt. Az. Time Alt. Az.
16 Dec 8.2 05:23:00 16° NW 05:24:52 20° NNW 05:29:17 10° NNE visible
17 Dec 8.9 04:13:39 16° NNE 04:13:39 16° NNE 04:14:54 10° NE visible
18 Dec 8.5 05:08:51 15° NNW 05:09:17 15° NNW 05:12:16 10° NNE visible
20 Dec 9.0 04:54:30 10° N 04:54:30 10° N 04:54:40 10° N visible
25 Dec 10.7 21:25:22 10° S 21:25:45 10° S 21:25:45 10° S visible
